Tracking 19709 objects as of 17-Jun-2019
HD Live streaming from Space Station
objects crossing your sky now

ESA/GOES

Track ESA/GOES now!
ESA/GOES is classified as:


NORAD ID: 9931
Int'l Code: 1977-029A
Perigee: 2,743.7 km
Apogee: 38,423.0 km
Inclination: 26.3 °
Period: 734.0 minutes
Semi major axis: 26954 km
RCS: 4.0849 m2 (large)
Launch date: April 20, 1977
Source: European Space Agency (ESA)
Launch site: AIR FORCE EASTERN TEST RANGE (AFETR)
aabbcc
Your satellite tracking list
Your tracking list is empty




NASA's NSSDC Master Catalog

Two Line Element Set (TLE):
1  9931U 77029A   19167.19088744 -.00000112 +00000-0 +00000-0 0  9997
2  9931 026.3395 153.7326 6618459 250.8530 030.4722 01.96182292301654
Source of the keplerian elements: AFSPC